EW9056 Weather Reports


time (UTC)temp
C
wind
direction
speed
KPH
gust
KPH
rain 1hr
cm
rain 24hr
cm
rain mn
cm
humidity
%
barometer
mb
20260503013035 17 25 0.0 0.0 0.00 0.00 0.00 37 1016.0
20260503011531 17 36 0.0 0.0 0.00 0.00 0.00 36 1016.1
20260503010030 17 35 0.0 0.0 0.00 0.00 0.00 37 1016.2
20260503004529 17 23 0.0 0.0 0.00 0.00 0.00 37 1016.3
20260503003020 17 23 0.0 0.0 0.00 0.00 0.00 37 1016.6
20260503001519 17 304 0.0 0.0 0.00 0.00 0.00 37 1016.7
20260503000017 17 4 0.0 0.0 0.00 0.00 0.00 36 1016.6
20260502234515 18 41 0.0 0.0 0.00 0.00 0.00 35 1016.8
20260502233012 18 287 0.0 3.2 0.00 0.00 0.00 34 1017.0
20260502231515 18 329 0.0 0.0 0.00 0.00 0.00 34 1017.3
20260502230012 19 331 0.0 3.2 0.00 0.00 0.00 34 1017.3
20260502224506 18 282 0.0 4.8 0.00 0.00 0.00 35 1017.6
20260502223002 18 294 0.0 1.6 0.00 0.00 0.00 35 1017.7
20260502221558 19 17 0.0 1.6 0.00 0.00 0.00 34 1017.8
20260502220054 19 44 0.0 8.0 0.00 0.00 0.00 34 1018.0
20260502214550 18 320 0.0 4.8 0.00 0.00 0.00 36 1018.2
20260502213048 17 146 0.0 3.2 0.00 0.00 0.00 37 1018.5
20260502211551 18 40 0.0 0.0 0.00 0.00 0.00 37 1018.5
20260502210041 17 328 0.0 8.0 0.00 0.00 0.00 38 1018.6
20260502204533 18 300 0.0 8.0 0.00 0.00 0.00 37 1018.6
20260502203102 18 347 0.0 16.1 0.00 0.00 0.00 37 1019.0
20260502201557 17 39 0.0 8.0 0.00 0.00 0.00 38 1019.0
20260502200045 17 33 0.0 1.6 0.00 0.00 0.00 40 1019.2
20260502194544 16 322 0.0 11.3 0.00 0.00 0.00 41 1019.1
20260502193035 16 50 0.0 14.5 0.00 0.00 0.00 43 1019.5
20260502191534 16 40 0.0 14.5 0.00 0.00 0.00 42 1019.6
20260502190037 16 29 0.0 16.1 0.00 0.00 0.00 44 1019.7
20260502184600 16 4 0.0 12.9 0.00 0.00 0.00 42 1019.8
20260502183105 16 15 0.0 16.1 0.00 0.00 0.00 42 1019.8
20260502181651 15 37 0.0 4.8 0.00 0.00 0.00 44 1019.9
20260502170137 16 38 4.8 19.3 0.00 0.00 0.00 41 1019.9
20260502163037 16 36 1.6 14.5 0.00 0.00 0.00 42 1019.8
20260502161519 16 25 11.3 19.3 0.00 0.00 0.00 43 1019.8
20260502151602 14 35 3.2 19.3 0.00 0.00 0.00 44 1019.5
20260502123015 5 31 0.0 3.2 0.00 0.00 0.00 67 1018.7
20260502121537 5 335 0.0 4.8 0.00 0.00 0.00 66 1018.6
20260502114529 6 13 0.0 8.0 0.00 0.00 0.00 64 1018.3
20260502113027 6 25 0.0 6.4 0.00 0.00 0.00 62 1018.2
20260502111520 6 338 0.0 8.0 0.00 0.00 0.00 60 1017.8
20260502110017 6 19 0.0 6.4 0.00 0.00 0.00 60 1017.6
20260502104509 7 360 0.0 1.6 0.00 0.00 0.00 56 1017.3
20260502103005 8 328 0.0 9.7 0.00 0.00 0.00 51 1017.0
20260502101508 8 44 0.0 14.5 0.00 0.00 0.00 51 1016.6
20260502100104 9 43 3.2 11.3 0.00 0.00 0.00 49 1016.6
20260502090104 9 4 0.0 6.4 0.00 0.00 0.00 45 1016.3
20260502071516 7 319 0.0 0.0 0.00 0.00 0.00 42 1015.6
20260502070012 9 330 0.0 0.0 0.00 0.00 0.00 40 1015.6
20260502064607 9 342 0.0 0.0 0.00 0.00 0.00 40 1015.5
20260502063004 8 340 0.0 0.0 0.00 0.00 0.00 41 1015.4
20260502061608 10 20 0.0 0.0 0.00 0.00 0.00 39 1015.3
20260502060053 10 18 0.0 0.0 0.00 0.00 0.00 38 1015.3
20260502054556 11 18 0.0 0.0 0.00 0.00 0.00 34 1015.3
20260502053049 12 340 0.0 0.0 0.00 0.00 0.00 33 1015.4
20260502051603 12 332 0.0 0.0 0.00 0.00 0.00 33 1015.4
20260502050042 13 325 0.0 0.0 0.00 0.00 0.00 32 1015.3
20260502044545 12 303 0.0 1.6 0.00 0.00 0.00 35 1015.2
20260502043038 10 311 0.0 0.0 0.00 0.00 0.00 36 1015.2
20260502041537 11 297 0.0 0.0 0.00 0.00 0.00 32 1015.3
20260502040040 12 297 0.0 0.0 0.00 0.00 0.00 30 1015.4
20260502034531 13 297 0.0 0.0 0.00 0.00 0.00 28 1015.4
20260502033030 14 296 0.0 0.0 0.00 0.00 0.00 27 1015.3
20260502031528 14 300 0.0 8.0 0.00 0.00 0.00 26 1015.0
20260502030024 13 340 0.0 0.0 0.00 0.00 0.00 27 1014.8
20260502024522 16 281 0.0 0.0 0.00 0.00 0.00 24 1014.8
20260502023021 18 281 0.0 0.0 0.00 0.00 0.00 23 1014.8
20260502021518 18 220 0.0 3.2 0.00 0.00 0.00 21 1014.7
20260502020016 20 28 0.0 0.0 0.00 0.00 0.00 21 1014.8
20260502014512 21 28 0.0 0.0 0.00 0.00 0.00 20 1014.7